Flag for Canada Weather past 2 weeks in Miramichi, New Brunswick, Canada

Now
64 °F

Passing clouds.


Feels Like: 64 °F
Forecast: 62 / 79 °F
Wind: 5 mph from Southwest

Location: Bathurst Airport

Current Time: Aug 30, 2015 at 10:23:38 PM

Latest Report: Aug 30, 2015 at 9:00 PM


Visibility: 15 mi

Pressure: 29.88 "Hg

Humidity: 94%

Dew point: 63 °F

Location of MiramichiLocation

Historic Weather in Miramichi — Graph

°F

Miramichi temperature yesterday

Maximum temperature yesterday: 75 °F (at 4:00 PM)
Minimum temperature yesterday: 61 °F (at 12:00 AM)
Average temperature yesterday: 66 °F

Past Weeks' High & Low Weather Summary

 TemperatureHumidityPressure
High91 °F (Aug 17, 4:00 PM)100% (Aug 16, 4:00 AM)30.16 "Hg (Aug 16, 4:00 AM)
Low54 °F (Aug 24, 7:00 AM)41% (Aug 17, 2:00 PM)29.78 "Hg (Aug 27, 4:00 PM)
Average70 °F79%29.99 "Hg
* Reported Aug 15 9:00 PM — Aug 30 9:00 PM, Miramichi, Weather by CustomWeather, © 2015

Note: Actual official high and low records may vary slightly from our data, if they occured in-between our weather recording intervals... More about our weather records

Advertising

Miramichi weather history for previous 24 hours

 ConditionsComfort  
Time TempWeatherWind HumidityBarometerVisibility
9:00 PM
Sun, Aug 30
64 °FPassing clouds.5 mph94%29.88 "Hg15 mi
8:00 PM70 °FBroken clouds.2 mph83%29.87 "Hg15 mi
7:00 PM73 °FOvercast.3 mph69%29.86 "Hg15 mi
6:00 PM75 °FBroken clouds.8 mph61%29.87 "Hg15 mi
5:00 PM77 °FBroken clouds.12 mph57%29.87 "Hg15 mi
4:00 PM75 °FMostly cloudy.6 mph61%29.88 "Hg15 mi
3:00 PM70 °FMostly cloudy.2 mph78%29.90 "Hg15 mi
2:00 PM72 °FMostly cloudy.5 mph65%29.91 "Hg15 mi
1:00 PM72 °FMostly cloudy.5 mph65%29.92 "Hg15 mi
12:00 PM70 °FMore clouds than sun.5 mph69%29.93 "Hg15 mi
11:00 AM68 °FMostly cloudy.5 mph78%29.93 "Hg15 mi
10:00 AM68 °FMostly cloudy.9 mph73%29.93 "Hg15 mi
9:00 AM63 °FMostly cloudy.3 mph88%29.93 "Hg15 mi
8:00 AM61 °FMore clouds than sun.3 mph88%29.93 "Hg15 mi
7:00 AM59 °FPartly cloudy.No wind94%29.92 "Hg15 mi
6:00 AM61 °FOvercast.3 mph88%29.92 "Hg15 mi
5:00 AM61 °FSprinkles. Overcast.3 mph88%29.93 "Hg15 mi
4:00 AM61 °FMostly cloudy.3 mph88%29.93 "Hg15 mi
3:00 AM61 °FMostly cloudy.2 mph88%29.94 "Hg15 mi
2:00 AM61 °FMostly cloudy.3 mph88%29.95 "Hg15 mi
1:00 AM61 °FMostly cloudy.5 mph88%29.96 "Hg15 mi
12:00 AM61 °FMostly cloudy.2 mph88%29.96 "Hg15 mi
11:00 PM
Sat, Aug 29
64 °FMostly cloudy.3 mph78%29.98 "Hg15 mi
10:00 PM64 °FMostly cloudy.5 mph83%29.97 "Hg15 mi
Weather by CustomWeather, © 2015

See weather overviewHow to use our weather pages